Temp
-13 -13 -13 -13 -13 -13 -13 -13 -13 -13 -13 -13 -14 -14 -14 -14 -14 -14 -15 -15 -15 -14 -14 -14 -14 -14 -14 -14 -14 -14 -15 -15
-13 -13 -13 -13 -13 -13 -13 -13 -13 -13 -13 -14 -14 -14 -14 -14 -14 -14 -14 -14 -14 -15 -14 -14 -14 -14 -14 -14 -14 -14 -15 -15
-13 -13 -13 -13 -13 -13 -13 -13 -13 -13 -13 -14 -14 -15 -14 -15 -15 -15 -15 -14 -14 -14 -14 -14 -14 -14 -14 -14 -14 -14 -14 -14
-13 -13 -13 -13 -13 -13 -13 -13 -14 -14 -14 -15 -15 -15 -15 -14 -15 -15 -15 -15 -15 -15 -15 -15 -15 -15 -14 -14 -14 -15 -15 -15
-13 -13 -13 -13 -13 -14 -14 -14 -14 -14 -15 -15 -15 -15 -14 -15 -15 -15 -15 -15 -15 -15 -15 -15 -15 -15 -15 -15 -15 -15 -15 -15
-13 -14 -14 -13 -14 -14 -14 -14 -15 -15 -15 -15 -15 -15 -15 -15 -15 -15 -15 -15 -15 -15 -15 -15 -15 -15 -15 -16 -15 -15 -15 -15
-14 -14 -14 -14 -14 -14 -15 -15 -15 -16 -16 -16 -15 -15 -15 -14 -15 -15 -15 -15 -15 -15 -15 -15 -15 -15 -15 -16 -16 -16 -15 -15
-14 -15 -15 -14 -15 -15 -15 -15 -15 -15 -15 -15 -15 -14 -14 -15 -15 -15 -15 -16 -15 -15 -15 -15 -15 -15 -15 -15 -15 -15 -15 -16
-14 -14 -14 -14 -15 -15 -15 -15 -15 -15 -15 -16 -14 -15 -15 -16 -16 -16 -16 -16 -16 -16 -16 -16 -16 -16 -16 -16 -15 -15 -15 -15
-14 -14 -14 -14 -15 -15 -15 -16 -15 -15 -15 -16 -17 -17 -16 -16 -16 -16 -16 -16 -16 -16 -16 -16 -16 -16 -16 -16 -16 -16 -16 -16
-14 -14 -14 -15 -15 -15 -16 -16 -15 -16 -16 -17 -17 -16 -17 -16 -16 -17 -17 -16 -16 -16 -16 -16 -16 -16 -16 -16 -16 -16 -16 -16
-15 -15 -15 -15 -16 -16 -16 -16 -17 -17 -17 -17 -17 -17 -17 -17 -17 -17 -16 -16 -16 -16 -16 -16 -17 -17 -17 -17 -17 -17 -17 -17
-15 -15 -15 -16 -16 -16 -16 -17 -17 -17 -17 -17 -17 -17 -17 -17 -17 -17 -17 -17 -17 -17 -17 -17 -18 -18 -18 -17 -17 -18 -18 -18
-16 -16 -15 -16 -16 -17 -17 -17 -17 -17 -17 -18 -17 -17 -17 -17 -18 -17 -18 -18 -18 -18 -18 -19 -19 -19 -19 -19 -18 -18 -19 -19
-17 -17 -17 -17 -17 -17 -17 -17 -18 -18 -18 -17 -17 -17 -18 -18 -18 -18 -18 -19 -19 -19 -19 -19 -20 -20 -20 -20 -20 -20 -20 -20
-17 -17 -17 -17 -17 -17 -18 -18 -18 -18 -18 -18 -18 -18 -18 -19 -19 -19 -19 -19 -19 -19 -20 -20 -20 -21 -21 -22 -22 -22 -21 -20
-17 -17 -17 -17 -18 -18 -18 -18 -18 -18 -18 -18 -19 -19 -19 -19 -19 -19 -19 -19 -20 -20 -21 -22 -22 -23 -23 -23 -23 -24 -24 -23
-17 -18 -18 -18 -18 -18 -18 -18 -18 -18 -18 -18 -18 -18 -19 -19 -19 -19 -20 -20 -21 -22 -22 -23 -23 -24 -24 -25 -25 -26 -26 -26
-18 -18 -18 -18 -18 -19 -18 -18 -18 -17 -18 -18 -18 -18 -18 -19 -20 -20 -21 -22 -22 -23 -23 -23 -24 -25 -26 -27 -28 -28 -29 -29
-17 -17 -17 -17 -17 -17 -17 -17 -17 -17 -18 -18 -18 -19 -19 -20 -21 -22 -22 -23 -22 -23 -24 -24 -26 -29 -29 -30 -30 -31 -31 -31
Height
5832 5832 5833 5833 5834 5834 5833 5834 5832 5832 5830 5829 5826 5824 5822 5819 5817 5814 5811 5809 5807 5804 5802 5799 5798 5795 5793 5791 5789 5788 5786 5785
5831 5832 5832 5833 5833 5832 5832 5831 5830 5828 5827 5825 5823 5820 5818 5815 5812 5811 5808 5804 5802 5799 5797 5795 5793 5790 5788 5785 5784 5782 5781 5779
5831 5831 5832 5831 5830 5830 5830 5829 5828 5826 5825 5822 5819 5817 5814 5810 5808 5806 5803 5800 5796 5793 5791 5788 5785 5782 5780 5778 5776 5775 5774 5773
5830 5830 5829 5829 5828 5828 5827 5825 5824 5823 5820 5818 5815 5813 5809 5806 5803 5800 5797 5794 5790 5788 5785 5782 5778 5774 5772 5770 5769 5768 5767 5765
5827 5828 5829 5828 5827 5827 5825 5823 5820 5817 5816 5812 5810 5807 5805 5802 5798 5795 5792 5788 5785 5782 5778 5774 5772 5769 5766 5763 5761 5760 5760 5760
5826 5826 5825 5824 5823 5821 5818 5816 5814 5811 5810 5808 5805 5803 5798 5796 5793 5790 5785 5780 5778 5774 5771 5767 5765 5763 5760 5758 5756 5754 5752 5752
5824 5824 5822 5821 5819 5817 5815 5811 5809 5806 5803 5801 5799 5796 5792 5789 5785 5782 5777 5773 5770 5767 5764 5761 5759 5757 5755 5753 5750 5748 5746 5744
5821 5820 5819 5817 5816 5814 5812 5808 5805 5802 5799 5796 5792 5790 5787 5782 5777 5772 5768 5764 5762 5758 5756 5753 5750 5748 5747 5745 5742 5741 5738 5736
5818 5815 5812 5810 5809 5808 5805 5801 5798 5795 5791 5787 5784 5781 5777 5773 5769 5764 5762 5757 5754 5750 5746 5743 5740 5739 5736 5733 5731 5729 5727 5726
5811 5808 5805 5801 5798 5798 5794 5791 5789 5785 5782 5778 5774 5771 5768 5764 5760 5757 5754 5749 5746 5743 5738 5734 5730 5726 5724 5721 5719 5716 5714 5713
5806 5804 5801 5794 5792 5791 5788 5785 5781 5777 5772 5768 5764 5761 5757 5753 5750 5747 5743 5739 5736 5732 5729 5725 5720 5715 5711 5708 5704 5700 5696 5695
5802 5800 5796 5792 5789 5788 5783 5779 5774 5770 5766 5761 5756 5750 5746 5742 5739 5734 5730 5727 5723 5719 5715 5711 5705 5701 5697 5693 5689 5684 5679 5677
5797 5794 5792 5789 5785 5781 5776 5772 5768 5763 5759 5753 5748 5743 5738 5734 5728 5722 5716 5712 5706 5701 5697 5693 5689 5684 5679 5675 5669 5663 5659 5655
5793 5788 5784 5779 5776 5773 5769 5763 5758 5754 5748 5743 5737 5732 5727 5722 5716 5709 5702 5696 5689 5683 5678 5673 5668 5661 5655 5651 5648 5646 5639 5632
5787 5783 5777 5772 5768 5764 5760 5754 5748 5743 5738 5732 5727 5721 5715 5708 5701 5694 5686 5679 5673 5666 5658 5650 5643 5637 5628 5621 5617 5615 5611 5611
5779 5773 5769 5763 5759 5754 5750 5745 5739 5733 5727 5721 5714 5707 5701 5694 5686 5679 5672 5664 5656 5648 5639 5630 5622 5613 5607 5598 5590 5582 5578 5579
5769 5764 5760 5756 5752 5747 5741 5736 5730 5724 5718 5712 5705 5698 5692 5684 5675 5664 5653 5643 5633 5623 5613 5603 5593 5585 5577 5571 5564 5557 5547 5539
5759 5755 5751 5748 5743 5738 5733 5728 5723 5718 5711 5704 5696 5687 5678 5664 5648 5639 5629 5617 5608 5598 5586 5575 5566 5556 5546 5537 5529 5523 5518 5510
5756 5751 5746 5741 5737 5732 5726 5721 5715 5707 5697 5686 5675 5663 5652 5642 5631 5619 5607 5596 5585 5574 5564 5554 5543 5531 5519 5510 5501 5491 5484 5480
5749 5744 5739 5734 5727 5721 5715 5707 5697 5688 5678 5668 5659 5648 5635 5621 5607 5592 5579 5565 5556 5545 5533 5523 5513 5504 5495 5487 5479 5468 5460 5453
Wind_Speed
10 11 10 8 8 9 9 12 13 14 17 18 19 20 22 24 26 29 31 32 29 26 25 24 24 25 26 28 28 26 27 27
10 11 10 10 11 11 13 16 16 17 18 20 22 23 25 28 28 28 28 28 29 27 27 27 28 29 30 30 29 30 28 30
12 10 10 13 12 14 16 18 19 21 24 24 24 25 26 27 26 27 27 28 30 31 33 35 36 35 35 34 32 29 29 28
11 13 14 14 13 16 18 20 22 24 25 25 25 25 27 29 29 29 28 29 32 34 36 36 37 37 36 35 32 29 25 25
14 14 12 13 16 19 20 24 22 23 25 27 28 28 29 27 31 32 31 32 35 36 37 32 29 32 34 34 31 29 25 25
13 14 15 19 19 20 23 30 26 27 29 31 30 31 29 30 35 33 34 35 35 33 34 33 31 30 29 30 33 33 31 29
16 16 18 19 21 21 26 32 25 32 31 29 32 34 31 33 38 37 36 34 32 32 34 33 32 31 31 31 32 35 37 37
15 14 18 21 21 20 22 24 28 32 33 33 34 36 38 38 39 38 37 36 36 36 37 36 35 35 35 35 37 37 39 41
18 20 24 23 19 26 28 31 32 36 35 32 35 35 37 42 42 36 39 40 40 40 42 44 44 43 43 43 44 45 46 47
21 23 22 13 27 31 32 43 39 37 35 35 36 39 46 46 40 40 40 42 42 43 46 47 48 49 49 50 51 53 55 56
21 18 28 34 30 29 31 42 40 35 36 40 44 48 48 44 43 44 46 46 48 49 50 51 53 55 56 58 60 62 63 62
25 27 35 35 38 40 43 41 34 33 42 48 48 45 47 48 49 50 51 52 54 55 56 58 61 62 63 64 66 68 70 70
33 36 39 40 43 42 42 37 43 41 47 43 46 48 48 49 52 56 59 61 62 63 64 65 66 68 71 72 73 74 76 77
33 42 45 45 44 43 42 42 45 47 47 48 49 51 54 57 60 64 67 69 70 72 74 75 75 77 78 78 78 77 77 79
36 37 41 45 45 44 45 46 47 47 48 49 52 56 60 64 67 70 73 76 77 78 81 82 83 82 82 82 81 81 80 77
43 43 48 48 46 45 45 45 45 47 50 54 58 63 66 70 73 76 78 81 81 82 84 86 85 85 83 82 83 86 87 91
45 47 43 40 40 40 41 43 46 50 54 59 62 66 69 72 76 79 82 84 87 88 87 85 85 85 86 87 88 89 92 94
45 42 41 39 39 40 41 44 49 53 58 62 66 68 72 79 86 86 88 90 89 89 89 90 90 91 91 90 92 92 93 94
36 35 33 35 38 41 44 49 54 60 64 69 74 79 84 86 88 90 90 90 90 90 91 92 94 92 91 89 86 84 83 82
30 33 37 41 44 47 52 58 65 68 72 76 80 83 87 90 92 92 93 95 98 97 98 97 90 87 85 73 74 78 79 67
Wind_Direction
209 199 215 223 231 240 249 256 263 272 280 283 284 291 295 295 295 295 297 299 298 299 298 295 293 294 295 296 295 292 288 280
204 216 230 240 253 267 269 272 276 278 278 279 285 289 292 294 298 300 303 304 304 304 299 296 294 294 295 294 292 290 289 283
215 232 249 257 269 276 279 279 279 282 283 285 287 290 294 296 298 300 300 301 301 303 303 304 303 300 298 298 296 292 291 284
243 255 264 278 278 275 277 280 285 289 292 290 294 297 297 301 305 306 308 307 303 301 300 300 299 298 297 296 296 292 290 289
257 275 293 291 288 290 293 295 292 291 300 301 298 298 296 302 306 301 303 303 303 302 300 300 300 301 300 295 292 288 285 287
290 291 290 285 280 278 275 287 290 288 298 302 294 297 290 292 306 304 303 301 301 301 299 298 299 297 294 295 290 286 281 280
287 292 287 291 291 277 296 294 290 312 307 300 298 296 284 302 308 304 304 303 301 302 300 300 299 300 296 290 288 287 287 288
286 288 293 289 294 300 306 301 304 303 292 291 291 294 294 298 306 306 307 309 308 308 305 304 302 300 298 294 291 289 288 288
292 293 295 288 281 302 311 316 309 309 304 300 293 288 302 308 308 308 307 307 309 308 305 305 304 301 300 297 295 293 290 288
297 302 314 272 313 322 322 321 313 310 304 303 297 292 299 305 304 305 305 305 302 300 300 299 299 298 297 297 296 294 292 289
314 317 303 312 316 311 310 312 308 307 302 302 302 300 298 302 305 308 306 305 303 302 301 299 298 297 295 294 293 293 291 288
319 305 309 313 316 309 310 306 305 297 295 303 301 301 306 308 307 306 306 304 303 302 300 299 299 298 296 293 292 290 287 286
315 314 311 308 308 307 306 297 298 296 297 296 299 302 302 303 303 303 304 303 302 304 303 301 299 299 297 295 293 291 288 285
311 313 306 303 303 303 296 294 295 298 299 299 300 302 303 305 305 304 304 304 304 303 301 300 298 297 296 294 292 287 283 282
308 303 301 298 295 295 296 298 299 301 301 302 302 304 306 307 307 306 306 304 302 301 299 300 299 296 293 292 291 289 287 280
304 299 297 295 297 298 298 300 304 304 303 306 307 308 307 307 307 304 302 299 297 297 299 300 300 298 296 293 290 289 287 286
300 301 301 299 299 302 302 303 302 303 305 305 302 303 303 301 300 300 300 301 302 302 302 301 298 294 291 288 284 282 280 277
307 305 305 306 303 301 300 299 298 299 299 300 300 302 303 306 308 307 306 305 305 303 302 300 297 294 290 286 284 282 279 277
297 294 295 292 291 291 292 295 298 301 305 308 310 311 310 309 307 307 306 305 303 302 300 297 296 293 291 290 290 284 283 284
289 289 289 291 294 294 298 305 310 311 311 311 310 309 309 310 310 310 308 306 305 303 301 298 296 294 294 295 303 294 290 291